Weather History for KGRD - December, 2012

Change the Weather History Date:

Tuesday, December 25, 2012

  Actual Average (KAND) Record (KAND)
Temperature  
Mean Temperature 50 °F -  
Max Temperature 51 °F 50 °F 81 °F (1955)
Min Temperature 48 °F 33 °F 2 °F (1983)
Degree Days  
Heating Degree Days 16    
Moisture  
Dew Point 50 °F    
Average Humidity 97    
Maximum Humidity 100    
Minimum Humidity 88    
Precipitation  
Precipitation 0.05 in - - ()
Sea Level Pressure  
Sea Level Pressure 30.01 in    
Wind  
Wind Speed 3 mph (ENE)    
Max Wind Speed 8 mph    
Max Gust Speed -    
Visibility 4 miles    
Events Fog , Rain    
Averages and records for this station are not official NWS values.
T = Trace of Precipitation, MM = Missing Value Source: NWS Daily Summary

Daily Weather History Graph

Daily Weather History Graph

Search for Another Location

Airport or City:

Trip Planner

Search our weather history database for the weather conditions in past years. The results will help you decide how hot, cold, wet, or windy it might be!

Date:

Astronomy

Dec. 25, 2012 Rise Set
Actual Time 7:32 AM EST 5:25 PM EST
Civil Twilight 7:04 AM EST 5:53 PM EST
Nautical Twilight 6:33 AM EST 6:24 PM EST
Astronomical Twilight 6:02 AM EST 6:55 PM EST
Moon 3:30 PM EST (12/25) 5:06 AM EST (12/25)
Length of Visible Light 10h 48m
Length of Day
9h 52m
Waxing Gibbous, 93% of the Moon is Illuminated
Dec 25
Waxing Gibbous
Dec 28
Full
Jan 4
Last Quarter
Jan 11
New
Jan 18
First Quarter

Hourly Weather History & Observations

Time (EST) Temp. Dew Point Humidity Pressure Visibility Wind Dir Wind Speed Gust Speed Precip Events Conditions
12:56 AM 51.1 °F 51.1 °F 100% 29.97 in 2.0 mi West 5.8 mph - N/A   Overcast
1:06 AM 51.8 °F 51.8 °F 100% 29.97 in 4.0 mi WSW 5.8 mph - N/A   Overcast
1:25 AM 51.8 °F 51.8 °F 100% 29.97 in 2.0 mi SW 4.6 mph - N/A   Overcast
1:37 AM 51.8 °F 51.8 °F 100% 29.97 in 4.0 mi SW 4.6 mph - N/A   Overcast
1:56 AM 51.1 °F 51.1 °F 100% 29.96 in 4.0 mi Calm Calm - N/A   Overcast
2:08 AM 51.8 °F 51.8 °F 100% 29.96 in 4.0 mi WSW 4.6 mph - N/A   Overcast
2:56 AM 51.1 °F 50.0 °F 96% 29.98 in 5.0 mi Calm Calm - N/A   Overcast
3:56 AM 51.1 °F 51.1 °F 100% 29.97 in 3.0 mi Calm Calm - N/A   Overcast
4:34 AM 51.8 °F 51.8 °F 100% 29.98 in 2.0 mi Calm Calm - N/A   Overcast
4:43 AM 51.8 °F 50.0 °F 94% 29.98 in 1.0 mi Calm Calm - N/A   Overcast
4:52 AM 51.8 °F 51.8 °F 100% 29.98 in 0.8 mi Calm Calm - N/A   Mist
4:56 AM 51.1 °F 51.1 °F 100% 29.98 in 0.5 mi Calm Calm - N/A Fog Fog
5:56 AM 50.0 °F 50.0 °F 100% 30.00 in 0.5 mi Calm Calm - N/A Fog Fog
6:56 AM 50.0 °F 48.9 °F 96% 30.03 in 0.8 mi Calm Calm - N/A   Mist
7:06 AM 50.0 °F 48.2 °F 94% 30.03 in 1.0 mi Calm Calm - N/A   Mist
7:46 AM 50.0 °F 50.0 °F 100% 30.04 in 2.5 mi Calm Calm - N/A   Overcast
7:56 AM 50.0 °F 50.0 °F 100% 30.05 in 2.5 mi Calm Calm - N/A   Overcast
8:22 AM 50.0 °F 50.0 °F 100% 30.05 in 3.0 mi Calm Calm - N/A   Overcast
8:35 AM 50.0 °F 48.2 °F 94% 30.06 in 2.5 mi Calm Calm - N/A   Overcast
8:45 AM 50.0 °F 50.0 °F 100% 30.06 in 3.0 mi Calm Calm - N/A   Overcast
8:56 AM 50.0 °F 48.9 °F 96% 30.07 in 3.0 mi NNE 3.5 mph - N/A   Overcast
9:36 AM 50.0 °F 50.0 °F 100% 30.07 in 2.0 mi North 5.8 mph - N/A   Overcast
9:39 AM 50.0 °F 50.0 °F 100% 30.07 in 1.8 mi NNE 5.8 mph - N/A   Overcast
9:56 AM 50.0 °F 50.0 °F 100% 30.07 in 1.2 mi NNE 5.8 mph - N/A   Overcast
10:41 AM 48.2 °F 48.2 °F 100% 30.07 in 0.8 mi ENE 8.1 mph - N/A   Overcast
10:48 AM 50.0 °F 48.2 °F 94% 30.08 in 1.0 mi ENE 4.6 mph - N/A   Overcast
10:56 AM 50.0 °F 48.9 °F 96% 30.08 in 1.2 mi NE 5.8 mph - N/A   Overcast
11:56 AM 50.0 °F 48.9 °F 96% 30.06 in 1.2 mi ENE 6.9 mph - N/A   Overcast
12:17 PM 50.0 °F 50.0 °F 100% 30.05 in 3.0 mi NE 5.8 mph - N/A   Overcast
12:28 PM 50.0 °F 48.2 °F 94% 30.05 in 6.0 mi ENE 6.9 mph - N/A   Overcast
12:56 PM 50.0 °F 48.9 °F 96% 30.05 in 5.0 mi ENE 4.6 mph - N/A   Overcast
1:56 PM 51.1 °F 50.0 °F 96% 30.05 in 6.0 mi Variable 3.5 mph - N/A   Overcast
2:56 PM 51.1 °F 50.0 °F 96% 30.02 in 4.0 mi ENE 6.9 mph - N/A   Overcast
3:16 PM 51.8 °F 50.0 °F 94% 30.02 in 2.5 mi East 4.6 mph - N/A   Overcast
3:29 PM 51.8 °F 50.0 °F 94% 30.01 in 3.0 mi ENE 5.8 mph - N/A   Overcast
3:56 PM 51.1 °F 50.0 °F 96% 30.00 in 6.0 mi ENE 5.8 mph - N/A   Overcast
4:10 PM 51.8 °F 50.0 °F 94% 30.01 in 8.0 mi NE 6.9 mph - N/A   Overcast
4:56 PM 50.0 °F 48.9 °F 96% 30.02 in 9.0 mi ENE 5.8 mph - N/A   Overcast
5:23 PM 51.8 °F 48.2 °F 88% 30.06 in 10.0 mi Calm Calm - N/A   Overcast
5:56 PM 50.0 °F 48.0 °F 93% 30.04 in 10.0 mi Calm Calm - 0.00 in Rain Light Rain
6:56 PM 50.0 °F 48.9 °F 96% 30.00 in 8.0 mi ENE 5.8 mph - 0.04 in Rain Light Rain
7:41 PM 50.0 °F 48.2 °F 94% 29.99 in 7.0 mi East 5.8 mph - 0.00 in Rain Light Rain
7:56 PM 50.0 °F 48.9 °F 96% 29.99 in 7.0 mi East 3.5 mph - 0.00 in   Overcast
8:19 PM 50.0 °F 48.2 °F 94% 29.98 in 6.0 mi Variable 3.5 mph - N/A   Overcast
8:56 PM 50.0 °F 48.9 °F 96% 29.99 in 7.0 mi ENE 3.5 mph - N/A   Overcast
9:06 PM 50.0 °F 48.2 °F 94% 30.00 in 7.0 mi Calm Calm - N/A   Overcast
9:56 PM 50.0 °F 48.9 °F 96% 29.95 in 5.0 mi ENE 4.6 mph - 0.00 in Rain Light Rain
10:13 PM 50.0 °F 48.2 °F 94% 29.95 in 3.0 mi ENE 3.5 mph - 0.01 in Rain Light Rain
10:56 PM 50.0 °F 50.0 °F 100% 29.93 in 6.0 mi East 5.8 mph - 0.01 in Rain Light Rain
11:56 PM 51.1 °F 50.0 °F 96% 29.90 in 6.0 mi East 8.1 mph - 0.00 in   Overcast